Location: Maccacari
(45.1333°N, 11.1333°E)
Time: 15:09:57
(UTC+00:00)

S-56A Canister/Altair - Pass Details

Date: 28 January 2021
Orbit: 631 x 2501 km, 38.9° (Epoch: 01 March)

Event Time Altitude Azimuth Distance (km) Brightness Sun altitude
Rises 22:17:47 0° 201° (SSW) 3,939 - -59.1°
Reaches altitude 10° 22:22:53 10° 172° (S) 2,569 - -59.6°
Maximum altitude 22:24:48 12° 152° (SSE) 2,317 - -59.7°
Drops below altitude 10° 22:26:35 10° 132° (SE) 2,315 - -59.9°
Sets 22:30:28 0° 99° (E) 3,034 - -60.2°
